Weather History for Ann Arbor, MI

Change the Weather History Date:

Saturday, March 2, 2013

  Actual Average Record
Temperature  
Mean Temperature 24 °F -  
Max Temperature 26 °F 34 °F 52 °F (2004)
Min Temperature 23 °F 18 °F 0 °F (2014)
Degree Days  
Heating Degree Days 40    
Moisture  
Dew Point 18 °F    
Average Humidity 74    
Maximum Humidity 81    
Minimum Humidity 69    
Precipitation  
Precipitation 0.00 in - - ()
Sea Level Pressure  
Sea Level Pressure 30.09 in    
Wind  
Wind Speed 8 mph (NNW)    
Max Wind Speed 10 mph    
Max Gust Speed -    
Visibility 9 miles    
Events Snow    
Averages and records for this station are not official NWS values.
T = Trace of Precipitation, MM = Missing Value Source: NWS Daily Summary

Daily Weather History Graph

Daily Weather History Graph

Search for Another Location

Airport:

Trip Planner

Search our weather history database for the weather conditions in past years. The results will help you decide how hot, cold, wet, or windy it might be!

Date:

Astronomy

Mar. 02, 2013 Rise Set
Actual Time 7:08 AM EST 6:26 PM EST
Civil Twilight 6:40 AM EST 6:54 PM EST
Nautical Twilight 6:07 AM EST 7:27 PM EST
Astronomical Twilight 5:35 AM EST 7:59 PM EST
Moon No Moon Rise 9:29 AM EST (3/2)
Length of Visible Light 12h 14m
Length of Day
11h 18m
Waning Gibbous, 74% of the Moon is Illuminated
Mar 2
Waning Gibbous
Mar 4
Last Quarter
Mar 11
New
Mar 19
First Quarter
Mar 27
Full

Hourly Weather History & Observations

Time (EST) Temp. Windchill Dew Point Humidity Pressure Visibility Wind Dir Wind Speed Gust Speed Precip Events Conditions
12:53 AM 25.0 °F 15.5 °F 18.0 °F 75% 30.10 in 10.0 mi NNW 9.2 mph - N/A   Overcast
1:53 AM 25.0 °F 16.3 °F 18.0 °F 75% 30.10 in 10.0 mi North 8.1 mph - N/A   Overcast
2:53 AM 25.0 °F 16.3 °F 18.0 °F 75% 30.09 in 10.0 mi North 8.1 mph - N/A   Overcast
3:53 AM 25.0 °F 16.3 °F 18.0 °F 75% 30.08 in 10.0 mi NNW 8.1 mph - N/A   Overcast
4:53 AM 25.0 °F 16.3 °F 18.0 °F 75% 30.07 in 10.0 mi North 8.1 mph - N/A   Overcast
5:53 AM 25.0 °F 15.5 °F 19.0 °F 78% 30.08 in 10.0 mi NNW 9.2 mph - N/A   Overcast
7:53 AM 24.1 °F 14.4 °F 19.0 °F 81% 30.09 in 8.0 mi NNW 9.2 mph - 0.00 in Snow Light Snow
8:53 AM 24.1 °F 15.2 °F 18.0 °F 77% 30.10 in 5.0 mi NNW 8.1 mph - 0.00 in Snow Light Snow
9:53 AM 24.1 °F 15.2 °F 19.0 °F 81% 30.09 in 5.0 mi NNW 8.1 mph - 0.00 in Snow Light Snow
10:53 AM 25.0 °F 15.5 °F 19.0 °F 78% 30.09 in 5.0 mi North 9.2 mph - 0.00 in Snow Light Snow
11:53 AM 25.0 °F 18.1 °F 18.0 °F 75% 30.09 in 8.0 mi North 5.8 mph - 0.00 in Snow Light Snow
12:53 PM 26.1 °F 19.4 °F 18.0 °F 71% 30.08 in 9.0 mi North 5.8 mph - 0.00 in Snow Light Snow
1:53 PM 26.1 °F 16.2 °F 18.0 °F 71% 30.07 in 9.0 mi North 10.4 mph - 0.00 in Snow Light Snow
2:53 PM 26.1 °F 16.8 °F 18.0 °F 71% 30.07 in 9.0 mi North 9.2 mph - 0.00 in Snow Light Snow
3:53 PM 26.1 °F 16.8 °F 18.0 °F 71% 30.07 in 10.0 mi North 9.2 mph - 0.00 in   Overcast
4:53 PM 26.1 °F 16.8 °F 17.1 °F 69% 30.07 in 10.0 mi North 9.2 mph - 0.00 in   Overcast
5:53 PM 25.0 °F 15.5 °F 17.1 °F 72% 30.09 in 10.0 mi NNW 9.2 mph - N/A   Overcast
6:53 PM 25.0 °F 14.8 °F 16.0 °F 69% 30.10 in 10.0 mi North 10.4 mph - N/A   Overcast
8:53 PM 24.1 °F 17.0 °F 16.0 °F 71% 30.09 in 10.0 mi NNW 5.8 mph - N/A   Overcast
9:53 PM 24.1 °F 17.0 °F 16.0 °F 71% 30.09 in 10.0 mi NW 5.8 mph - N/A   Overcast
10:53 PM 23.0 °F 15.8 °F 16.0 °F 74% 30.09 in 10.0 mi NW 5.8 mph - N/A   Overcast
11:53 PM 23.0 °F 14.7 °F 16.0 °F 74% 30.08 in 10.0 mi WNW 6.9 mph - N/A   Overcast